Location: Kosice
(48.7170°N, 21.2500°E)
Time: 06:14:18
(UTC+02:00)

ISS - Pass Details

Date: 27 March 2019
Orbit: 408 x 410 km, 51.6° (Epoch: 20 April)

Event Time Altitude Azimuth Distance (km) Brightness Sun altitude
Rises 18:33:28 0° 249° (WSW) 2,332 1.1 -6.7°
Reaches altitude 10° 18:35:33 10° 250° (WSW) 1,472 0.0 -7.0°
Maximum altitude 18:38:52 86° 338° (NNW) 415 -3.8 -7.5°
Drops below altitude 10° 18:42:11 10° 69° (ENE) 1,476 -1.5 -8.1°
Enters shadow 18:42:40 - 69° (ENE) 1,677 -1.2 -8.1°
